Vorticity
nan nan nan nan nan nan nan nan nan nan nan nan nan nan nan nan nan nan nan nan nan nan
nan 6 8 10 5 7 8 10 12 9 7 8 8 8 5 8 9 8 9 10 8 nan
nan 8 8 9 10 7 9 9 11 9 8 8 7 8 6 6 8 7 7 10 10 nan
nan 9 8 8 10 8 10 11 10 9 8 7 8 7 7 7 8 8 7 8 10 nan
nan 10 8 9 9 10 9 10 8 10 9 8 7 8 8 7 7 9 8 8 9 nan
nan 11 10 10 9 9 8 10 10 9 9 9 9 9 8 8 7 8 9 9 9 nan
nan 10 9 11 12 9 11 9 10 9 10 9 9 10 9 8 8 8 9 10 10 nan
nan 10 11 10 10 11 10 11 11 10 9 9 9 12 13 10 10 10 10 10 10 nan
nan 9 12 11 10 9 10 11 11 11 10 7 10 16 15 12 11 11 10 10 9 nan
nan 14 11 11 11 10 10 9 9 11 13 11 9 10 13 12 11 12 10 9 9 nan
nan 29 14 12 11 10 10 9 8 10 9 9 12 13 9 8 7 11 13 13 13 nan
nan 20 25 21 13 11 11 11 11 11 12 10 13 13 10 8 8 10 12 15 17 nan
nan 13 16 18 17 17 17 15 15 17 17 11 15 17 12 4 7 12 10 9 10 nan
nan nan nan nan nan nan nan nan nan nan nan nan nan nan nan nan nan nan nan nan nan nan
CAPE
1178 980 375 140 58 534 415 408 583 628 682 576 525 437 514 769 801 984 1048 943 873 336
1080 897 503 215 107 208 451 321 632 673 753 733 551 427 597 686 890 951 1192 1164 1120 634
498 873 342 260 124 61 188 213 541 643 670 678 633 633 734 870 1019 1097 1078 1007 1106 971
354 463 305 239 164 128 101 149 278 638 602 610 596 707 790 959 914 965 1080 1024 1094 937
406 176 278 297 249 193 182 164 178 445 585 525 604 777 816 952 735 1005 997 1113 950 913
561 368 200 356 308 310 232 245 94 211 344 339 464 615 912 1025 1090 1117 1082 1210 1017 783
630 490 287 145 322 389 230 229 256 190 361 462 575 699 901 973 1137 1108 1133 1122 1004 719
992 770 250 199 157 228 463 280 315 371 402 438 565 604 883 871 883 1068 1112 1154 841 697
1169 782 307 225 165 235 534 341 537 388 436 513 308 202 383 734 1247 1038 817 419 294 74
997 791 332 232 213 336 428 621 470 454 1008 1227 1209 0 0 114 891 676 277 126 43 7
4 743 458 317 340 365 383 394 463 332 173 373 133 0 0 0 107 114 53 72 45 0
7 1 37 255 298 301 243 190 125 80 90 16 2 2 2 1 0 1 0 0 0 0
4 2 2 2 1 1 82 30 0 0 3 3 0 1 1 1 0 1 0 0 0 0
5 5 2 3 0 0 0 0 0 0 0 0 0 0 0 1 1 0 0 0 0 1